Date String (YYYY-MM-DD hh:mm:ss) UTC,Instrument flags,Ambient pressure (hPa),Sample flow (lpm),Bypass flow (lpm),Sample temperature (°C),Ambient temperature (°C),ASC tube jacket temperature (°C),LED temperature (°C),Box temperature (°C),Sample RH (%),Span deviation,Mass concentration (μg/m³),Mass concentration (μg/m³),Mass concentration (μg/m³)
DateTimeUTC,F1_M11,P_M11,Q1_M11,Q2_M11,T1_M11,T2_M11,T3_M11,T4_M11,T5_M11,U1_M11,ZSPAN_M11,X0_M11,X2_M11,X1_M11
2021-10-12 09:00:00,,0816.3,5.01,0.00,29.4,28.3,00.0,38.6,31.1,14.5,0002.3,0024.28,0006.67,0003.91
2021-10-12 09:01:00,,0816.3,5.00,0.00,29.4,28.3,00.0,38.5,31.1,14.5,0002.5,0024.76,0006.65,0003.92
2021-10-12 09:02:00,,0816.3,5.00,0.00,29.4,28.3,00.0,38.5,31.1,14.5,0002.4,0026.13,0006.68,0003.92
2021-10-12 09:03:00,,0816.3,4.99,0.00,29.3,28.3,00.0,38.5,31.1,14.5,0002.5,0025.44,0006.74,0003.94
2021-10-12 09:04:00,,0816.3,4.99,0.00,29.3,28.3,00.0,38.5,31.1,14.5,0002.4,0025.71,0006.72,0003.95
2021-10-12 09:05:00,,0816.3,5.01,0.00,29.3,28.3,00.0,38.5,31.1,14.5,0002.6,0025.53,0006.72,0003.97
2021-10-12 09:06:00,,0816.4,5.00,0.00,29.3,28.2,00.0,38.5,31.1,14.4,0002.2,0025.64,0006.78,0003.98
2021-10-12 09:07:00,,0816.4,4.98,0.00,29.3,28.2,00.0,38.5,31.1,14.4,0002.3,0025.35,0006.78,0003.99
2021-10-12 09:08:00,,0816.4,5.01,0.00,29.3,28.2,00.0,38.5,31.1,14.4,0001.0,0024.36,0006.82,0004.00
2021-10-12 09:09:00,,0816.4,5.00,0.00,29.3,28.2,00.0,38.5,31.0,14.4,0001.0,0023.53,0006.79,0004.01
2021-10-12 09:10:00,,0816.4,5.00,0.00,29.3,28.2,00.0,38.5,31.0,14.4,0001.0,0023.21,0006.80,0004.00
2021-10-12 09:11:00,,0816.4,5.00,0.00,29.3,28.2,00.0,38.5,31.0,14.4,0000.3,0022.45,0006.79,0004.01
2021-10-12 09:12:00,,0816.4,5.01,0.00,29.3,28.2,00.0,38.4,31.0,14.4,0000.4,0021.87,0006.76,0004.01
2021-10-12 09:13:00,,0816.4,4.99,0.00,29.3,28.2,00.0,38.4,31.0,14.4,0000.7,0020.63,0006.69,0004.00
2021-10-12 09:14:00,,0816.4,4.99,0.00,29.2,28.2,00.0,38.4,31.0,14.4,0000.3,0020.46,0006.62,0003.99
2021-10-12 09:15:00,,0816.4,5.01,0.00,29.2,28.2,00.0,38.4,31.0,14.4,0000.1,0022.24,0006.63,0003.99
2021-10-12 09:16:00,,0816.3,5.00,0.00,29.2,28.2,00.0,38.4,30.9,14.4,-000.2,0024.11,0006.67,0004.00
2021-10-12 09:17:00,,0816.3,5.00,0.00,29.2,28.1,00.0,38.4,30.9,14.4,0000.4,0024.30,0006.63,0004.01
2021-10-12 09:18:00,,0816.3,5.01,0.00,29.2,28.1,00.0,38.4,30.9,14.4,0000.5,0024.14,0006.67,0004.01
2021-10-12 09:19:00,,0816.3,5.00,0.00,29.2,28.1,00.0,38.4,30.9,14.5,0000.6,0025.02,0006.70,0004.02
2021-10-12 09:20:00,,0816.3,4.99,0.00,29.2,28.1,00.0,38.4,30.9,14.5,0001.3,0024.91,0006.64,0004.01
2021-10-12 09:21:00,,0816.2,5.01,0.00,29.2,28.1,00.0,38.4,30.9,14.5,0000.8,0025.78,0006.62,0004.03
2021-10-12 09:22:00,,0816.3,5.01,0.00,29.2,28.1,00.0,38.4,30.9,14.5,0000.0,0026.21,0006.60,0004.03
2021-10-12 09:23:00,,0816.3,4.99,0.00,29.2,28.1,00.0,38.4,30.9,14.5,0000.0,0026.28,0006.64,0004.02
2021-10-12 09:24:00,,0816.4,5.01,0.00,29.2,28.1,00.0,38.4,30.9,14.5,0000.0,0027.38,0006.68,0004.05
2021-10-12 09:25:00,,0816.4,5.01,0.00,29.2,28.1,00.0,38.4,30.9,14.5,0000.0,0027.03,0006.71,0004.06
2021-10-12 09:26:00,,0816.3,4.99,0.00,29.2,28.1,00.0,38.4,30.9,14.5,0000.0,0025.96,0006.75,0004.07
2021-10-12 09:27:00,,0816.3,4.99,0.00,29.2,28.1,00.0,38.4,30.9,14.6,0000.0,0023.64,0006.70,0004.08
2021-10-12 09:28:00,,0816.3,5.01,0.00,29.2,28.1,00.0,38.3,30.9,14.6,0000.0,0022.46,0006.69,0004.09
2021-10-12 09:29:00,,0816.3,5.01,0.00,29.2,28.1,00.0,38.4,30.9,14.6,0000.7,0022.10,0006.68,0004.10
2021-10-12 09:30:00,,0816.2,5.00,0.00,29.2,28.1,00.0,38.4,30.9,14.6,0003.2,0021.58,0006.59,0004.11
2021-10-12 09:31:00,,0816.3,4.99,0.00,29.2,28.1,00.0,38.3,30.9,14.6,0002.7,0021.98,0006.66,0004.15
2021-10-12 09:32:00,,0816.3,5.00,0.00,29.2,28.2,00.0,38.3,30.9,14.6,0002.2,0021.28,0006.68,0004.16
2021-10-12 09:33:00,,0816.3,5.01,0.00,29.2,28.2,00.0,38.3,30.9,14.5,0002.0,0021.12,0006.77,0004.19
2021-10-12 09:34:00,,0816.3,4.99,0.00,29.2,28.2,00.0,38.4,30.9,14.5,0001.7,0021.78,0006.79,0004.20
2021-10-12 09:35:00,,0816.3,5.00,0.00,29.2,28.2,00.0,38.4,30.9,14.5,0001.4,0020.47,0006.92,0004.21
2021-10-12 09:36:00,,0816.3,5.00,0.00,29.2,28.2,00.0,38.3,30.9,14.5,0001.0,0020.30,0006.99,0004.22
2021-10-12 09:37:00,,0816.3,5.01,0.00,29.2,28.2,00.0,38.3,31.0,14.5,0000.6,0020.22,0007.08,0004.24
2021-10-12 09:38:00,,0816.3,4.99,0.00,29.2,28.2,00.0,38.3,30.9,14.5,0000.1,0019.51,0007.08,0004.23
2021-10-12 09:39:00,,0816.4,5.01,0.00,29.2,28.2,00.0,38.3,30.9,14.5,-000.5,0019.80,0007.08,0004.25
2021-10-12 09:40:00,,0816.4,4.99,0.00,29.2,28.2,00.0,38.3,30.9,14.5,-000.6,0021.00,0007.21,0004.26
2021-10-12 09:41:00,,0816.4,5.01,0.00,29.2,28.1,00.0,38.3,30.9,14.5,-000.4,0021.09,0007.27,0004.27
2021-10-12 09:42:00,,0816.4,4.99,0.00,29.2,28.1,00.0,38.3,30.9,14.5,-000.0,0021.66,0007.21,0004.26
2021-10-12 09:43:00,,0816.4,5.01,0.00,29.2,28.1,00.0,38.3,30.9,14.5,0000.8,0022.56,0007.24,0004.27
2021-10-12 09:44:00,,0816.4,5.00,0.00,29.2,28.1,00.0,38.3,30.9,14.5,0001.6,0023.16,0007.23,0004.26
2021-10-12 09:45:00,,0816.4,4.98,0.00,29.2,28.1,00.0,38.3,30.9,14.5,0002.1,0022.29,0007.22,0004.29
2021-10-12 09:46:00,,0816.4,5.01,0.00,29.2,28.1,00.0,38.3,30.9,14.5,0001.8,0022.47,0007.13,0004.30
2021-10-12 09:47:00,,0816.3,4.99,0.00,29.2,28.1,00.0,38.3,30.9,14.5,0001.1,0023.59,0007.09,0004.31
2021-10-12 09:48:00,,0816.3,5.01,0.00,29.2,28.1,00.0,38.3,30.9,14.5,0001.2,0024.53,0007.08,0004.32
2021-10-12 09:49:00,,0816.3,5.01,0.00,29.1,28.1,00.0,38.3,30.8,14.5,0001.9,0025.24,0007.07,0004.34
2021-10-12 09:50:00,,0816.1,4.99,0.00,29.1,28.1,00.0,38.3,30.8,14.5,0002.6,0025.67,0007.15,0004.36
2021-10-12 09:51:00,,0816.1,5.00,0.00,29.1,28.1,00.0,38.3,30.9,14.5,0002.9,0025.42,0007.13,0004.37
2021-10-12 09:52:00,,0816.0,5.01,0.00,29.1,28.1,00.0,38.3,30.9,14.5,0002.7,0025.19,0007.12,0004.39
2021-10-12 09:53:00,,0816.0,4.99,0.00,29.1,28.0,00.0,38.3,30.8,14.5,0002.5,0025.08,0007.22,0004.41
2021-10-12 09:54:00,,0815.9,5.00,0.00,29.1,28.0,00.0,38.3,30.9,14.5,0002.3,0025.25,0007.21,0004.41
2021-10-12 09:55:00,,0815.9,5.01,0.00,29.1,28.1,00.0,38.3,30.9,14.5,0001.9,0024.91,0007.29,0004.45
2021-10-12 09:56:00,,0815.9,4.99,0.00,29.1,28.0,00.0,38.3,30.9,14.6,0001.8,0026.50,0007.40,0004.46
2021-10-12 09:57:00,,0815.9,5.00,0.00,29.1,28.0,00.0,38.3,30.9,14.6,0002.2,0026.89,0007.47,0004.48
2021-10-12 09:58:00,,0815.9,5.01,0.00,29.1,28.0,00.0,38.3,30.8,14.6,0002.7,0026.13,0007.53,0004.50
2021-10-12 09:59:00,,0815.9,5.00,0.00,29.1,28.0,00.0,38.3,30.8,14.6,0003.0,0025.80,0007.57,0004.52
